This is the latest recevied weather packets stored in our database for station/object N5ATR. If no packets are shown the sender has not sent any weather packets the latest 10 day(s).
| Time | Temp. | Humidity | Pressure | Rain* | Wind** | Luminosity | Snow |
|---|---|---|---|---|---|---|---|
| 1788644489 | 29.44° C | 32% | 1021.4 hPa | 0 mm | - | 522 W/m² | - |
| 1788644184 | 29.44° C | 31% | 1021.5 hPa | 0 mm | - | 500 W/m² | - |
| 1788643879 | 28.89° C | 33% | 1021.5 hPa | 0 mm | - | 504 W/m² | - |
| 1788643575 | 29.44° C | 32% | 1021.5 hPa | 0 mm | - | 286 W/m² | - |
| 1788643274 | 29.44° C | 32% | 1021.4 hPa | 0 mm | - | 482 W/m² | - |
| 1788642969 | 30° C | 31% | 1021.5 hPa | 0 mm | - | 572 W/m² | - |
| 1788642665 | 29.44° C | 32% | 1021.9 hPa | 0 mm | - | 597 W/m² | - |
| 1788642361 | 30° C | 32% | 1021.8 hPa | 0 mm | - | 626 W/m² | - |
| 1788642055 | 30° C | 32% | 1021.8 hPa | 0 mm | - | 607 W/m² | - |
| 1788641755 | 29.44° C | 33% | 1022 hPa | 0 mm | - | 587 W/m² | - |
| 1788641454 | 30° C | 32% | 1021.9 hPa | 0 mm | - | 659 W/m² | - |
| 1788641149 | 28.33° C | 33% | 1021.9 hPa | 0 mm | - | 524 W/m² | - |
| 1788640844 | 28.89° C | 33% | 1022 hPa | 0 mm | - | 379 W/m² | - |
| 1788640544 | 29.44° C | 33% | 1021.9 hPa | 0 mm | - | 576 W/m² | - |
| 1788640240 | 29.44° C | 33% | 1022.5 hPa | 0 mm | - | 587 W/m² | - |
| 1788639935 | 29.44° C | 32% | 1022.4 hPa | 0 mm | - | 662 W/m² | - |
| 1788639630 | 28.89° C | 33% | 1022.3 hPa | 0 mm | - | 472 W/m² | - |
| 1788639326 | 29.44° C | 33% | 1022.5 hPa | 0 mm | - | 292 W/m² | - |
| 1788639025 | 29.44° C | 34% | 1022.4 hPa | 0 mm | - | 646 W/m² | - |
| 1788638721 | 28.89° C | 33% | 1022.4 hPa | 0 mm | - | 830 W/m² | - |
| 1788638420 | 29.44° C | 33% | 1022.5 hPa | 0 mm | - | 833 W/m² | - |
| 1788638115 | 30° C | 34% | 1022.8 hPa | 0 mm | - | 755 W/m² | - |
| 1788637810 | 28.89° C | 33% | 1022.6 hPa | 0 mm | - | 762 W/m² | - |
| 1788637510 | 28.33° C | 34% | 1022.6 hPa | 0 mm | - | 741 W/m² | - |
| 1788637209 | 28.89° C | 34% | 1022.8 hPa | 0 mm | - | 722 W/m² | - |
* Rain latest hour (hover to see other rain measurements)
** Current wind speed in m/s (hover to see current wind gust speed)